Location: Zürich
(47.3769°N, 8.5417°E)
Time: 11:16:28
(UTC+02:00)

ISS - Pass Details

Date: 22 May 2021
Orbit: 417 x 422 km, 51.6° (Epoch: 13 June)

Event Time Altitude Azimuth Distance (km) Brightness Sun altitude
Rises 22:56:33 0° 286° (WNW) 2,365 0.9 -14.5°
Reaches altitude 10° 22:58:44 10° 294° (WNW) 1,502 0.0 -14.8°
Maximum altitude 23:01:55 39° 5° (N) 644 -2.4 -15.1°
Drops below altitude 10° 23:05:08 10° 77° (ENE) 1,503 -1.2 -15.4°
Enters shadow 23:05:24 - 78° (ENE) 1,606 -1.0 -15.4°
